Regional Weather Roundup
Issued by NWS

Home | Current Version | Previous Version | Text Only | Print | Product List | Glossary On
Versions: 1 2 3 4 5 6 7 8 9 10 11 12 13 14 15 16 17 18 19 20 21 22 23 24 25 26 27 28 29 30 31 32 33 34 35 36 37 38 39 40 41 42 43 44 45 46 47 48 49 50
000
ASUS43 KMPX 220010
RWRMN
WEATHER ROUNDUP FOR MINNESOTA
NATIONAL WEATHER SERVICE TWIN CITIES/CHANHASSEN MN
600 PM CST SAT JAN 21 2017


NOTE: "FAIR" INDICATES FEW OR NO CLOUDS BELOW 12,000 FEET WITH NO
SIGNIFICANT WEATHER AND/OR OBSTRUCTIONS TO VISIBILITY. N/A MEANS
CURRENT SKY AND/OR WEATHER CONDITIONS ARE NOT AVAILABLE.

MNZ060>063-068>070-220100-
   Twin Cities Metro

CITY           SKY/WX    TMP DP  RH WIND       PRES   REMARKS
TWIN CITIES    CLOUDY    37  35  92 CALM      29.47R FOG
6HR MIN TEMP:  37; 6HR MAX TEMP:  38; 6HR PCP: TRACE;

ST PAUL        CLOUDY    36  36 100 SW3       29.49R FOG
CRYSTAL        FOG       36  34  92 N3        29.45S VSB 1/2
BLAINE         FOG       37  37 100 CALM      29.46R VSB 3/4
LAKEVILLE      FOG       34  34 100 CALM      29.46R VSB 1/2
EDEN PRAIRIE   CLOUDY    37  35  92 CALM      29.46R FOG
6HR MIN TEMP:  37; 6HR MAX TEMP:  38;

SOUTH ST PAUL  FOG       36  36 100 CALM      29.47R VSB 3/4
LAKE ELMO      FOG       36  36 100 CALM      29.47R VSB 1/4
$$
MNZ001>005-007-008-013>017-022>024-027-028-220100-
   Northwest Minnesota

CITY           SKY/WX    TMP DP  RH WIND       PRES   REMARKS
BEMIDJI        CLOUDY    33  33 100 E6        29.48S FOG     WCI  28
HALLOCK        DRIZZLE   36  34  93 CALM      29.51R
ROSEAU         HAZE      36  30  80 NE5       29.52R VSB 3/4
WARROAD        CLOUDY    34  30  86 CALM      29.53R FOG
THIEF RVR FALL LGT RAIN  35  33  92 NE3       29.51R
CROOKSTON      MIX PCPN  36  34  93 E5        29.51R
FOSSTON        CLOUDY    34  32  93 CALM      29.50R
DETROIT LAKES  CLOUDY    36  34  93 CALM      29.49R
MOORHEAD       CLOUDY    34  34 100 CALM      29.50R
PARK RAPIDS    FOG       36  33  89 NE3       29.47R VSB 1/2
MAHNOMEN       CLOUDY    34  33  96 CALM      29.48R
$$
MNZ006-009>011-018-025>026-220100-
   North Central Minnesota

CITY           SKY/WX    TMP DP  RH WIND       PRES   REMARKS
BAUDETTE       CLOUDY    35  33  92 E6        29.51R WCI  30
FLAG ISLAND    CLOUDY    34  34 100 E3        29.52S
INTL FALLS     CLOUDY    35  34  96 NE3       29.52R
6HR MIN TEMP:  35; 6HR MAX TEMP:  36; 6HR PCP:  0.01;

WASKISH        CLOUDY    36  36 100 E3        29.50R
BIG FORK       CLOUDY    36  34  93 CALM      29.49R
LONGVILLE      CLOUDY    36  34  93 CALM      29.48R
GRAND RAPIDS   MIX PCPN  35  34  96 CALM      29.50R FOG
CRANE LAKE     CLOUDY    34  34 100 CALM      29.53S
ORR            CLOUDY    36  32  87 CALM      29.48R
COOK           CLOUDY    36  34  93 CALM      29.50R
WALKER         FOG       33  33  99 NE3       29.49R VSB 1/2
$$
MNZ012-019>021-037-220100-
   Northeast Minnesota

CITY           SKY/WX    TMP DP  RH WIND       PRES   REMARKS
DULUTH         DRZL/FOG  35  34  96 E10       29.47R VSB 1   WCI  27
6HR MIN TEMP:  34; 6HR MAX TEMP:  35; 6HR PCP: TRACE;

ELY            CLOUDY    36  34  93 NE3       29.50S
HIBBING        CLOUDY    34  34 100 NE5       29.48R WCI  30
EVELETH        CLOUDY    37  37  97 E3        29.50R
DULUTH HARBOR  CLOUDY    34  34 100 NE9       29.50R WCI  26
TWO HARBORS    CLOUDY    37  34  87 NE8       29.47S
SILVER BAY     CLOUDY    36  36 100 NE7       29.48S FOG
GRAND MARAIS     N/A     38  36  92 E8        29.53R
G MARAIS ARPRT RAIN      34  28  80 NE7       29.49R WCI  28
$$
MNZ029>031-032-039>041-046>048-054>057-064-220100-
   West Central Minnesota

CITY           SKY/WX    TMP DP  RH WIND       PRES   REMARKS
FERGUS FALLS   CLOUDY    36  36 100 SE3       29.52R
WHEATON        CLOUDY    43  43 100 CALM      29.50R FOG
MORRIS         DRZL/FOG  34  34 100 E5        29.47R VSB 1/2 WCI  30
ALEXANDRIA     FOG       34  34 100 E5        29.47R VSB 1/2 WCI  30
ELBOW LAKE     CLOUDY    34  34 100 CALM      29.48R FOG
WADENA         CLOUDY    34  34 100 NE3       29.47R FOG
GLENWOOD       SNOW      34  34 100 E3        29.47R VSB 1/4
APPLETON       FOG       34  34 100 CALM      29.47R VSB 1/4
BENSON         CLOUDY    36  34  93 CALM      29.49R
ORTONVILLE     FOG       34  32  93 CALM      29.47R VSB 1/4
MADISON        FOG       36  36 100 CALM      29.47R VSB 1/4
WILLMAR        CLOUDY    36  36 100 CALM      29.48R FOG
$$
MNZ033>034-036-042>043-049>051-058-059-220100-
   Central Minnesota

CITY           SKY/WX    TMP DP  RH WIND       PRES   REMARKS
ST CLOUD       FOG       35  35 100 CALM      29.47R VSB 1/4
6HR MIN TEMP:  34; 6HR MAX TEMP:  35;

SAUK CENTRE    SNOW      33  33 100 NE3       29.47R VSB 1/4
PAYNESVILLE    FOG       34  34 100 NE3       29.47R VSB 1/2
AITKIN         CLOUDY    37  34  87 CALM      29.48R FOG
PINE RIVER     CLOUDY    36  36 100 NE6       29.52R FOG
BRAINERD       FOG       34  34 100 NE6       29.48R VSB 1/2 WCI  29
STAPLES        FOG       34  34 100 CALM      29.48R VSB 3/4
LONG PRAIRIE   SNOW      32  32 100 NE3       29.48R VSB 1/4
LITTLE FALLS   FOG       34  34 100 CALM      29.48R VSB 1/2
LITCHFIELD     MIX PCPN  36  36 100 CALM      29.46R VSB 1/4
BUFFALO        FOG       35  34  96 N3        29.47S VSB 1/4
MAPLE LAKE     FOG       36  36 100 CALM      29.47S VSB 1/2
HUTCHINSON     FOG       36  36 100 N6        29.47R VSB 1/4
$$
MNZ037-044-045-052-053-220100-
   East Central Minnesota

CITY           SKY/WX    TMP DP  RH WIND       PRES   REMARKS
PRINCETON      FOG       36  36 100 CALM      29.47S VSB 1/2
MORA           CLOUDY    34  34 100 CALM      29.50R FOG
CAMBRIDGE      FOG       37  37 100 CALM      29.45S VSB 3/4
RUSH CITY      LGT RAIN  36  34  93 VRB3      29.47S
MOOSE LAKE     CLOUDY    34  32  93 CALM      29.47R FOG
HINCKLEY       CLOUDY    36  36 100 NE3       29.48R FOG
CLOQUET        CLOUDY    34  34 100 E6        29.48R FOG     WCI  29
MCGREGOR       CLOUDY    34  34 100 CALM      29.49R
$$
MNZ071>073-080-081-089-090-097-098-220100-
   Southwest Minnesota

CITY           SKY/WX    TMP DP  RH WIND       PRES   REMARKS
MONTEVIDEO     FOG       34  34 100 CALM      29.48R VSB 1/4
GRANITE FALLS  FOG       36  36 100 N3        29.48R VSB<1/4
CANBY          FOG       35  35 100 CALM      29.47R VSB 1/4
MARSHALL       FOG       36  36 100 NW3       29.46R VSB 1
REDWOOD FALLS  FOG       35  35 100 CALM      29.46R VSB 1/4
OLIVIA         FOG       34  34 100 CALM      29.45R VSB 1/4
PIPESTONE      CLOUDY    32  30  93 W8        29.45R FOG     WCI  25
WINDOM         CLOUDY    34  34 100 SW9       29.46R FOG     WCI  26
WORTHINGTON    CLOUDY    31  30  96 W12       29.46R WCI  22
JACKSON        CLOUDY    32  32 100 SW8       29.47R FOG     WCI  25
TRACY          CLOUDY    35  35 100 W5        29.45R WCI  31
SLAYTON        CLOUDY    31  31 100 W8        29.46R FOG     WCI  24
$$
MNZ065>067-074>077-082>085-091>093-220100-
   South Central Minnesota

CITY           SKY/WX    TMP DP  RH WIND       PRES   REMARKS
MANKATO        FOG       36  35  96 CALM      29.47R VSB 1/4
NEW ULM        FOG       36  36 100 CALM      29.46R VSB 1/4
ST JAMES       FOG       36  36 100 CALM      29.47R VSB 1/4
FAIRMONT       CLOUDY    35  34  96 W14       29.47R FOG     WCI  26
GLENCOE        FOG       37  37 100 CALM      29.45R VSB 3/4
OWATONNA       FOG       36  34  93 CALM      29.46R VSB 1/4
WASECA         FOG       34  34 100 CALM      29.47R VSB 1/4
ALBERT LEA     FOG       37  37 100 CALM      29.45R VSB 1/4
$$
MNZ078>079-086>088-094>096-220100-
   Southeast Minnesota

CITY           SKY/WX    TMP DP  RH WIND       PRES   REMARKS
ROCHESTER      FOG       34  34 100 S8        29.47R VSB 1/4 WCI  27
6HR MIN TEMP:  34; 6HR MAX TEMP:  36;

RED WING       FOG       36  34  93 CALM      29.47R VSB 1/4
STANTON        FOG       36  34  95 CALM      29.45R VSB 1/2
DODGE CENTER   FOG       34  34 100 CALM      29.45R VSB 1/4
WINONA         CLOUDY    37  37 100 SW3       29.48R FOG
AUSTIN         DRZL/FOG  36  34  93 S6        29.46R VSB 1/2
PRESTON        FOG       35  34  97 SW6       29.47R VSB 1/4 WCI  30
$$
ABBREVIATIONS USED IN REMARKS
   TC - TEMPERATURES IN CELSIUS
  WCI - WIND CHILL INDEX
   HX - HEAT INDEX
  VSB - VISIBILITY
$$




USA.gov is the U.S. government's official web portal to all federal, state and local government web resources and services.